TimeEDT,TemperatureF,Dew PointF,Humidity,Sea Level PressureIn,VisibilityMPH,Wind Direction,Wind SpeedMPH,Gust SpeedMPH,PrecipitationIn,Events,Conditions,WindDirDegrees,DateUTC
12:51 AM,48.0,35.1,61,30.38,10.0,North,8.1,-,N/A,,Scattered Clouds,350,2013-04-26 04:51:00
1:51 AM,46.9,32.0,56,30.38,10.0,North,6.9,-,N/A,,Clear,350,2013-04-26 05:51:00
2:51 AM,44.1,30.0,58,30.39,10.0,Calm,Calm,-,N/A,,Clear,0,2013-04-26 06:51:00
3:51 AM,45.0,27.0,49,30.39,10.0,North,4.6,-,N/A,,Clear,360,2013-04-26 07:51:00
4:51 AM,42.1,28.0,58,30.41,10.0,Calm,Calm,-,N/A,,Clear,0,2013-04-26 08:51:00
5:51 AM,39.0,30.0,70,30.41,10.0,Calm,Calm,-,N/A,,Clear,0,2013-04-26 09:51:00
6:51 AM,37.0,30.9,79,30.43,10.0,Calm,Calm,-,N/A,,Clear,0,2013-04-26 10:51:00
7:51 AM,41.0,34.0,76,30.45,10.0,Calm,Calm,-,N/A,,Clear,0,2013-04-26 11:51:00
8:51 AM,46.9,32.0,56,30.47,10.0,North,3.5,-,N/A,,Clear,350,2013-04-26 12:51:00
9:51 AM,51.1,30.9,46,30.46,10.0,ENE,6.9,-,N/A,,Clear,70,2013-04-26 13:51:00
10:51 AM,54.0,30.9,41,30.45,10.0,Calm,Calm,-,N/A,,Clear,0,2013-04-26 14:51:00
11:51 AM,57.9,30.0,35,30.46,10.0,Calm,Calm,-,N/A,,Clear,0,2013-04-26 15:51:00
12:51 PM,57.9,28.9,33,30.45,10.0,Calm,Calm,-,N/A,,Clear,0,2013-04-26 16:51:00
1:51 PM,62.1,28.9,29,30.43,10.0,Calm,Calm,-,N/A,,Clear,0,2013-04-26 17:51:00
2:51 PM,62.1,28.0,28,30.41,10.0,Calm,Calm,-,N/A,,Clear,0,2013-04-26 18:51:00
3:51 PM,63.0,28.9,28,30.38,10.0,NNW,5.8,-,N/A,,Clear,340,2013-04-26 19:51:00
4:51 PM,63.0,27.0,26,30.34,10.0,Calm,Calm,-,N/A,,Clear,0,2013-04-26 20:51:00
5:51 PM,64.0,27.0,25,30.35,10.0,Calm,Calm,-,N/A,,Clear,0,2013-04-26 21:51:00
6:51 PM,64.0,25.0,23,30.37,10.0,Calm,Calm,-,N/A,,Clear,0,2013-04-26 22:51:00
7:51 PM,62.1,25.0,24,30.36,10.0,Calm,Calm,-,N/A,,Clear,0,2013-04-26 23:51:00
8:51 PM,60.1,28.9,31,30.35,10.0,Calm,Calm,-,N/A,,Clear,0,2013-04-27 00:51:00
9:51 PM,57.0,32.0,39,30.36,10.0,NE,3.5,-,N/A,,Clear,40,2013-04-27 01:51:00
10:51 PM,55.9,34.0,44,30.35,10.0,Calm,Calm,-,N/A,,Clear,0,2013-04-27 02:51:00
11:51 PM,52.0,36.0,54,30.35,10.0,Calm,Calm,-,N/A,,Clear,0,2013-04-27 03:51:00